[[{"header":{"parameterUnit":"m.s-1","parameterCategory":2,"la1":30.2991,"la2":30.254,"lo1":-89.0895,"lo2":-89.0444,"dy":0.0017,"dx":0.0017,"nx":28,"ny":28,"refTime":"2024-05-21T21:00:00:Z","depth":"0","parameterNumber":2,"parameterNumberName":"U-component_of_CURRENTS"},"data":[0,0,0,0,0,0,0,0,0,0,0,0,0,0,0,0,0,0,0,0,0,0,0,0,0,0,0,0,0,0,0,0,0,0,0,0,0,0,0,0,0,0,0,0,0,0,0,0,0,0,0,0,0,0,0,0,0,0,0.2235,0.2236,0,0.2237,0.2237,0.2237,0.216,0.2158,0.2156,0.2154,0.219,0.2192,0.2195,0,0,0,0,0,0,0,0,0,0,0,0,0,0.2212,0.2212,0.2235,0.2236,0.2236,0.2237,0.2237,0.2237,0.216,0.2158,0.2156,0.2154,0.2189,0.2192,0.2195,0,0,0,0,0,0,0,0,0,0,0,0,0,0.2217,0.2212,0.2235,0.2199,0.2196,0.2237,0.2237,0.2237,0.2161,0.2158,0.2155,0.2153,0.2188,0.2192,0.2196,0.2276,0,0,0.2208,0.221,0,0,0,0,0,0,0,0,0.2217,0.2217,0.2204,0.2202,0.2199,0.2197,0.2242,0.2252,0.2161,0.2172,0.2154,0.2151,0.2199,0.2202,0.2205,0.2278,0.2279,0.2208,0.2211,0.2212,0.2214,0,0,0,0,0,0,0,0.2216,0.2217,0.2234,0.2205,0.2201,0.2199,0.2196,0.2243,0.22,0.2171,0.2166,0.217,0.2197,0.2201,0.2205,0.228,0.2208,0.2212,0.2214,0.2216,0.2353,0.2354,0,0,0,0,0,0,0.2221,0.2217,0.2234,0.2234,0.2203,0.2202,0.2198,0.2199,0.2199,0.2196,0.2173,0.2167,0.2196,0.2201,0.2206,0.2265,0.2212,0.2216,0.2218,0.2352,0.2353,0.2355,0,0,0,0,0,0,0.2221,0.2223,0.2234,0.2227,0.2229,0.2205,0.2206,0.22,0.2204,0.22,0.2197,0.2182,0.2194,0.2201,0.2238,0.2266,0.2218,0.2222,0.2351,0.2352,0.2354,0.2405,0,0,0,0,0,0,0.222,0.2222,0.2238,0.2228,0.2229,0.2282,0.2209,0.2202,0.2212,0.2204,0.2209,0.2208,0.2192,0.2232,0.2242,0.2271,0.2225,0.2349,0.2351,0.2354,0.2402,0.2409,0.2415,0,0,0,0,0,0.2219,0.2263,0.2239,0.2242,0.2247,0.2285,0.2287,0.2258,0.2216,0.2245,0.222,0.2208,0.2253,0.2237,0.2248,0.2279,0.2348,0.2351,0.2353,0.2399,0.2408,0.2414,0,0,0,0,0,0,0.2263,0.2259,0.2232,0.227,0.2283,0.2272,0.2307,0.2275,0.228,0.2269,0.2238,0.2239,0.2278,0.2281,0.2263,0.2323,0.2295,0.23,0.2326,0.2334,0.234,0.2358,0.2228,0,0,0,0,0,0.2281,0.2304,0.23,0.2331,0.2347,0.2326,0.234,0.2319,0.2316,0.2314,0.2307,0.2301,0.2304,0.2317,0.2332,0.2387,0.2411,0.2409,0.2415,0.242,0.2442,0.2506,0.2521,0.2364,0.2364,0.2364,0,0,0.2302,0.2306,0.2316,0.2342,0.2349,0.237,0.2328,0.2365,0.2365,0.2325,0.2342,0.2336,0.2323,0.2358,0.2377,0.2363,0.2476,0.2424,0.2428,0.2448,0.2511,0.2527,0.254,0.2366,0.2366,0.2365,0,0,0.2355,0.2369,0.24,0.2422,0.2445,0.2432,0.2446,0.2449,0.2442,0.2469,0.2416,0.2427,0.2454,0.2436,0.2428,0.249,0.2506,0.2495,0.2548,0.261,0.2624,0.2636,0.2681,0.2697,0.2498,0.2499,0.2499,0,0.2375,0.24,0.2421,0.2458,0.247,0.2458,0.2483,0.2491,0.2496,0.2505,0.2486,0.2502,0.2487,0.2505,0.2505,0.2506,0.2544,0.2517,0.262,0.2632,0.2644,0.2687,0.2705,0.2501,0.2501,0.2501,0.2501,0,0.2441,0.246,0.2496,0.2512,0.2542,0.2577,0.2581,0.2607,0.2592,0.2586,0.2625,0.2611,0.2618,0.2608,0.2572,0.2639,0.2639,0.2619,0.2602,0.2664,0.2704,0.2721,0.2505,0.2504,0.2504,0.2503,0,0,0.2454,0.252,0.2522,0.2527,0.2569,0.2589,0.2628,0.2651,0.2665,0.2694,0.2722,0.272,0.2725,0.2718,0.2687,0.2729,0.2823,0.2716,0.2718,0.2764,0.2968,0.2877,0.2887,0.2833,0.2836,0.2839,0.2961,0,0.2476,0.253,0.2562,0.2592,0.2613,0.2638,0.2666,0.2695,0.2718,0.2757,0.2771,0.2792,0.2762,0.2766,0.2812,0.2816,0.2873,0.2792,0.29,0.2903,0.2818,0.2905,0.2699,0.2783,0.2977,0.298,0.2982,0,0.2502,0.2529,0.257,0.2604,0.262,0.264,0.2684,0.2713,0.278,0.2807,0.2864,0.2881,0.2936,0.2901,0.3001,0.2959,0.2982,0.299,0.2995,0.2909,0.2844,0.2754,0.2806,0.273,0.3008,0.3006,0.3004,0,0.2465,0.2519,0.254,0.2559,0.2614,0.2639,0.2662,0.2728,0.2764,0.2847,0.2897,0.2972,0.3011,0.3078,0.3104,0.3072,0.322,0.3169,0.3117,0.311,0.2955,0.2928,0.2947,0.3269,0.3269,0.3268,0.3268,0,0.2462,0.2473,0.2523,0.2539,0.2565,0.2615,0.2658,0.2705,0.2784,0.284,0.292,0.2985,0.3065,0.3151,0.3168,0.3205,0.3283,0.3157,0.3149,0.2963,0.2937,0.2876,0.2851,0.3273,0.3272,0.3271,0.327,0,0.2427,0.246,0.2483,0.2536,0.2553,0.2574,0.2648,0.2686,0.2768,0.2853,0.2889,0.3024,0.3127,0.3201,0.3298,0.327,0.3203,0.3304,0.3071,0.3032,0.2862,0.2847,0.2775,0.2698,0.3262,0.3261,0.326,0,0.2418,0.2427,0.2473,0.2492,0.252,0.2556,0.259,0.2665,0.2715,0.2868,0.2912,0.3051,0.3123,0.3242,0.3211,0.3244,0.317,0.3076,0.296,0.2854,0.2833,0.2725,0.2659,0.2778,0.2773,0.2769,0.2766,0,0.2405,0.2418,0.2446,0.2474,0.2505,0.2533,0.2588,0.2622,0.2722,0.2793,0.2902,0.2975,0.3066,0.3001,0.3039,0.3023,0.2883,0.2991,0.295,0.2524,0.2342,0.226,0.2699,0.2729,0.2733,0.2736,0.2738,0.2739,0.2392,0.2406,0.2437,0.2454,0.2485,0.2506,0.2497,0.2561,0.2614,0.2679,0.2815,0.2834,0.281,0.2808,0.2786,0.2592,0.2639,0.2473,0.2488,0.2409,0.2249,0.2604,0.2575,0.2578,0.258,0.2582,0.2584,0,0.237,0.2391,0.2416,0.2427,0.2423,0.2455,0.2486,0.2454,0.2464,0.2535,0.2586,0.2519,0.2431,0.239,0.2216,0.2101,0.1995,0.2052,0.1859,0.1841,0.2213,0.2103,0.1886,0.1886,0.1886,0.1886,0.1886,0.1886,0.2365,0.2378,0.2384,0.2356,0.2355,0.2303,0.2293,0.2265,0.227,0.2202,0.213,0.2146,0.2132,0.2004,0.1819,0.1761,0.1641,0.1514,0.1613,0.1874,0.1913,0.1951,0.1843,0.1574,0.1573,0.1088,0.1085,0.1082]},{"header":{"parameterUnit":"m.s-1","parameterCategory":2,"la1":30.2991,"la2":30.254,"lo1":-89.0895,"lo2":-89.0444,"dy":0.0017,"dx":0.0017,"nx":28,"ny":28,"refTime":"2024-05-21T21:00:00:Z","depth":"0","parameterNumber":3,"parameterNumberName":"V-component_of_CURRENTS"},"data":[0,0,0,0,0,0,0,0,0,0,0,0,0,0,0,0,0,0,0,0,0,0,0,0,0,0,0,0,0,0,0,0,0,0,0,0,0,0,0,0,0,0,0,0,0,0,0,0,0,0,0,0,0,0,0,0,0,0,0.0232,0.0233,0,0.0245,0.0245,0.0245,0.0236,0.0236,0.0236,0.0235,0.0218,0.0217,0.0217,0,0,0,0,0,0,0,0,0,0,0,0,0,0.0195,0.0196,0.0232,0.0233,0.0233,0.0245,0.0245,0.0245,0.0236,0.0236,0.0236,0.0235,0.0218,0.0217,0.0217,0,0,0,0,0,0,0,0,0,0,0,0,0,0.021,0.0196,0.0232,0.023,0.023,0.0245,0.0245,0.0245,0.0237,0.0236,0.0235,0.0235,0.0218,0.0217,0.0217,0.0226,0,0,0.0217,0.0216,0,0,0,0,0,0,0,0,0.0209,0.0211,0.023,0.0231,0.0231,0.0239,0.0225,0.0237,0.0237,0.0234,0.0235,0.0235,0.0223,0.0222,0.0225,0.0225,0.0225,0.0217,0.0216,0.0216,0.0216,0,0,0,0,0,0,0,0.0208,0.021,0.0237,0.0231,0.0231,0.0227,0.0228,0.0228,0.023,0.0234,0.0233,0.0236,0.0222,0.0225,0.0225,0.0224,0.0217,0.0216,0.0216,0.0216,0.0227,0.0228,0,0,0,0,0,0,0.0208,0.0209,0.0237,0.0237,0.0219,0.0228,0.0229,0.0236,0.0231,0.023,0.0236,0.0235,0.0226,0.0225,0.0224,0.0244,0.0216,0.0216,0.0216,0.0227,0.0227,0.0228,0,0,0,0,0,0,0.0208,0.0211,0.0236,0.0224,0.0227,0.0229,0.0237,0.0237,0.0241,0.0233,0.0231,0.0241,0.0226,0.0224,0.0233,0.0243,0.0216,0.0216,0.0226,0.0227,0.0227,0.0278,0,0,0,0,0,0,0.0206,0.0211,0.0216,0.0224,0.0227,0.0252,0.0237,0.0238,0.0244,0.0243,0.0236,0.0234,0.0225,0.0233,0.0232,0.0242,0.0216,0.0226,0.0227,0.0227,0.0275,0.028,0.0284,0,0,0,0,0,0.0205,0.022,0.0216,0.0219,0.0235,0.0253,0.0255,0.0254,0.0245,0.0254,0.025,0.0234,0.0237,0.0234,0.0233,0.0242,0.0225,0.0226,0.0227,0.0274,0.0279,0.0284,0,0,0,0,0,0,0.0207,0.0221,0.0217,0.0235,0.0244,0.0252,0.0263,0.0258,0.0262,0.026,0.0246,0.0245,0.0253,0.0242,0.0238,0.0246,0.0226,0.0227,0.0261,0.0266,0.027,0.03,0.0215,0,0,0,0,0,0.021,0.0226,0.0234,0.0249,0.0256,0.0258,0.0264,0.0264,0.0269,0.027,0.0266,0.0259,0.0256,0.0257,0.0253,0.0264,0.0264,0.0266,0.027,0.0274,0.0297,0.0301,0.0308,0.0231,0.0231,0.0231,0,0,0.0215,0.0224,0.0233,0.025,0.0258,0.0281,0.0261,0.0277,0.0295,0.0267,0.0291,0.0275,0.0262,0.0273,0.0274,0.0266,0.0295,0.0275,0.0279,0.03,0.0303,0.0311,0.0318,0.0232,0.0231,0.0231,0,0,0.0242,0.0243,0.0268,0.028,0.0294,0.0298,0.0304,0.0315,0.0318,0.0336,0.0316,0.0314,0.0313,0.0309,0.0305,0.033,0.0315,0.0318,0.0368,0.0371,0.0378,0.0384,0.0395,0.0401,0.0322,0.0322,0.0322,0,0.0247,0.028,0.0278,0.0306,0.0323,0.031,0.0343,0.0347,0.0357,0.0373,0.0351,0.036,0.0335,0.0359,0.0359,0.0342,0.0344,0.035,0.0379,0.0384,0.039,0.0399,0.0406,0.0325,0.0324,0.0324,0.0324,0,0.0298,0.0321,0.0339,0.0371,0.0387,0.0412,0.0419,0.0434,0.0431,0.0437,0.0458,0.0431,0.0444,0.042,0.0396,0.0421,0.041,0.0381,0.037,0.0401,0.0408,0.0414,0.0328,0.0327,0.0327,0.0326,0,0,0.0323,0.0366,0.0373,0.0404,0.0423,0.0449,0.0478,0.0512,0.0551,0.0539,0.0593,0.0557,0.0546,0.0541,0.0506,0.0498,0.0518,0.0459,0.0458,0.0477,0.0537,0.0494,0.0496,0.0493,0.0495,0.0496,0.0527,0,0.0366,0.0431,0.0439,0.0505,0.0542,0.0543,0.0582,0.0606,0.0619,0.0666,0.0638,0.0669,0.0592,0.0604,0.0583,0.0542,0.0537,0.0513,0.0498,0.0498,0.0462,0.0503,0.0494,0.0519,0.0533,0.0534,0.0535,0,0.0417,0.0456,0.0523,0.0589,0.0607,0.0643,0.0711,0.0744,0.0787,0.0802,0.0819,0.0805,0.0805,0.0731,0.0688,0.0678,0.0619,0.0573,0.0573,0.0525,0.0467,0.0489,0.0529,0.0455,0.0544,0.0543,0.0542,0,0.0452,0.0519,0.0576,0.0596,0.0662,0.0701,0.0741,0.0789,0.0843,0.0899,0.0954,0.0936,0.0957,0.088,0.0777,0.0742,0.0729,0.067,0.0579,0.0575,0.0563,0.0556,0.054,0.0647,0.0647,0.0646,0.0646,0,0.0499,0.0551,0.06,0.0637,0.0726,0.0752,0.0852,0.0888,0.0964,0.1058,0.1033,0.1108,0.0994,0.0969,0.0846,0.0744,0.0785,0.061,0.0587,0.0578,0.0572,0.0502,0.0458,0.0648,0.0647,0.0647,0.0647,0,0.0537,0.0562,0.064,0.0716,0.0746,0.0814,0.0928,0.1005,0.1063,0.119,0.1222,0.1254,0.1221,0.1095,0.0987,0.085,0.0691,0.069,0.069,0.0664,0.0482,0.0442,0.0405,0.0361,0.0603,0.0602,0.0601,0,0.0566,0.0605,0.0697,0.0753,0.0793,0.0892,0.0971,0.1049,0.114,0.1287,0.1365,0.1383,0.1414,0.1242,0.1004,0.0806,0.0701,0.0655,0.0571,0.0494,0.0432,0.0393,0.0357,0.058,0.0579,0.0579,0.0578,0,0.063,0.0654,0.0717,0.0821,0.0909,0.1016,0.1134,0.1218,0.1332,0.1447,0.1589,0.1629,0.148,0.1285,0.0999,0.0846,0.0598,0.0633,0.0563,0.0429,0.0381,0.0321,0.0541,0.0572,0.0573,0.0573,0.0574,0.0574,0.0677,0.073,0.0804,0.0903,0.1005,0.1129,0.1219,0.1355,0.1509,0.168,0.1722,0.1787,0.1517,0.113,0.093,0.055,0.0551,0.0426,0.0391,0.0366,0.0299,0.0504,0.0492,0.0492,0.0492,0.0492,0.0492,0,0.073,0.0789,0.0886,0.1003,0.1108,0.1154,0.1322,0.1419,0.1596,0.1752,0.1863,0.174,0.1424,0.1077,0.057,0.0347,0.0263,0.0242,0.0201,0.0178,0.0378,0.035,0.0295,0.0295,0.0295,0.0295,0.0295,0.0295,0.0763,0.085,0.0892,0.1057,0.1144,0.1279,0.1366,0.1524,0.1651,0.1802,0.1822,0.1824,0.1551,0.0779,0.0287,0.0182,0.0049,0.0014,-0.0042,0.0103,0.0118,0.0132,0.0096,-0.0012,-0.0012,-0.0227,-0.0229,-0.0231]}],[{"header":{"parameterUnit":"m.s-1","parameterCategory":2,"la1":30.2991,"la2":30.254,"lo1":-89.0895,"lo2":-89.0444,"dy":0.0017,"dx":0.0017,"nx":28,"ny":28,"refTime":"2024-05-21T21:00:00:Z","depth":"2","parameterNumber":2,"parameterNumberName":"U-component_of_CURRENTS"},"data":[0,0,0,0,0,0,0,0,0,0,0,0,0,0,0,0,0,0,0,0,0,0,0,0,0,0,0,0,0,0,0,0,0,0,0,0,0,0,0,0,0,0,0,0,0,0,0,0,0,0,0,0,0,0,0,0,0,0,0.202,0.2021,0,0.2029,0.2029,0.2029,0.1988,0.1988,0.1987,0.1986,0.2027,0.2029,0.2031,0,0,0,0,0,0,0,0,0,0,0,0,0,0.2004,0.2004,0.202,0.2021,0.2021,0.2029,0.2029,0.2028,0.1989,0.1988,0.1986,0.1985,0.2027,0.2029,0.2031,0,0,0,0,0,0,0,0,0,0,0,0,0,0.2009,0.2004,0.202,0.2004,0.2003,0.2029,0.2029,0.2028,0.1989,0.1988,0.1986,0.1985,0.2026,0.2029,0.2031,0.2076,0,0,0.204,0.2042,0,0,0,0,0,0,0,0,0.2009,0.2009,0.2006,0.2005,0.2004,0.2009,0.2038,0.2047,0.1989,0.1991,0.1986,0.1984,0.2027,0.203,0.203,0.2078,0.208,0.2041,0.2042,0.2044,0.2044,0,0,0,0,0,0,0,0.2008,0.2009,0.2021,0.2007,0.2006,0.2009,0.2007,0.204,0.2015,0.1991,0.1989,0.1995,0.2026,0.2027,0.2031,0.2081,0.2041,0.2043,0.2045,0.2046,0.2179,0.2181,0,0,0,0,0,0,0.2013,0.2009,0.202,0.2021,0.2006,0.201,0.2008,0.2006,0.2014,0.2014,0.1996,0.1993,0.2023,0.2027,0.2032,0.2087,0.2044,0.2046,0.2048,0.2177,0.218,0.2182,0,0,0,0,0,0,0.2012,0.2014,0.202,0.2018,0.2019,0.2012,0.201,0.2007,0.2014,0.2018,0.2018,0.2006,0.2022,0.2028,0.2063,0.2088,0.2048,0.205,0.2175,0.2178,0.2181,0.2196,0,0,0,0,0,0,0.2012,0.2013,0.2028,0.2018,0.202,0.2042,0.2011,0.2008,0.2021,0.2017,0.2027,0.2029,0.2021,0.2058,0.2065,0.2091,0.2053,0.2173,0.2177,0.218,0.2193,0.2199,0.2204,0,0,0,0,0,0.2011,0.2037,0.2028,0.2031,0.2034,0.2044,0.2045,0.2033,0.2023,0.2033,0.2036,0.2029,0.2085,0.2062,0.207,0.2097,0.2171,0.2176,0.218,0.2191,0.2198,0.2204,0,0,0,0,0,0,0.2036,0.2035,0.2025,0.2048,0.2049,0.2038,0.2051,0.2047,0.2057,0.206,0.2051,0.2054,0.2093,0.2103,0.2078,0.2148,0.2129,0.2135,0.2135,0.2142,0.2147,0.2157,0.2055,0,0,0,0,0,0.205,0.206,0.206,0.2072,0.2076,0.2067,0.2075,0.2072,0.2076,0.2078,0.2086,0.2102,0.2119,0.2134,0.2154,0.2199,0.222,0.2224,0.2229,0.2233,0.225,0.2306,0.2318,0.2195,0.2195,0.2195,0,0,0.2056,0.2061,0.2064,0.2078,0.2072,0.2088,0.2067,0.2086,0.2102,0.2086,0.2117,0.2125,0.2135,0.2171,0.2191,0.2181,0.2279,0.2238,0.2241,0.2256,0.2311,0.2323,0.2334,0.2198,0.2197,0.2197,0,0,0.2078,0.2082,0.2101,0.211,0.2124,0.2119,0.213,0.2138,0.2143,0.218,0.2165,0.2188,0.2227,0.2227,0.2233,0.229,0.2303,0.2304,0.234,0.2394,0.2404,0.2414,0.2445,0.2457,0.2307,0.2307,0.2307,0,0.2094,0.2105,0.2108,0.2134,0.2141,0.2134,0.2155,0.2167,0.2189,0.2208,0.2197,0.2254,0.2251,0.2288,0.2294,0.23,0.2332,0.2306,0.24,0.2409,0.2419,0.2449,0.2462,0.2308,0.2308,0.2308,0.2308,0,0.2125,0.2141,0.2151,0.2169,0.2188,0.2201,0.2217,0.2242,0.2251,0.2268,0.232,0.2322,0.2356,0.2355,0.2336,0.2402,0.2403,0.2395,0.2377,0.2432,0.246,0.2474,0.231,0.231,0.2309,0.2309,0,0,0.2126,0.2164,0.2164,0.2175,0.2205,0.2217,0.2256,0.2284,0.2313,0.2353,0.2397,0.2416,0.2432,0.2441,0.2432,0.2467,0.2535,0.2462,0.2464,0.2483,0.2655,0.2549,0.2553,0.2551,0.2554,0.2556,0.2644,0,0.2136,0.2176,0.22,0.2227,0.2241,0.2261,0.2293,0.2333,0.2362,0.2411,0.2439,0.2485,0.2462,0.2482,0.2517,0.2534,0.2575,0.2512,0.261,0.2613,0.2503,0.2566,0.2337,0.2388,0.2657,0.2659,0.2661,0,0.2152,0.2171,0.2205,0.2243,0.2253,0.2284,0.2326,0.2364,0.2436,0.2468,0.2532,0.2559,0.2619,0.259,0.2676,0.2643,0.266,0.2669,0.2673,0.2581,0.2532,0.2382,0.2402,0.2683,0.2681,0.268,0.2678,0,0.2126,0.2172,0.2192,0.2205,0.2258,0.2287,0.2321,0.2388,0.2426,0.2524,0.2569,0.2647,0.2697,0.2745,0.2763,0.2738,0.2852,0.2817,0.2742,0.2734,0.2561,0.2532,0.2895,0.2895,0.2894,0.2894,0.2894,0,0.2118,0.2132,0.2185,0.2195,0.2229,0.2286,0.2341,0.2387,0.2471,0.2529,0.2609,0.2663,0.2746,0.2808,0.2812,0.282,0.2902,0.2766,0.2759,0.2557,0.2529,0.2802,0.279,0.2897,0.2897,0.2896,0.2895,0,0.2089,0.2117,0.2144,0.2199,0.222,0.2253,0.234,0.2382,0.2474,0.2555,0.2597,0.2709,0.2788,0.2844,0.292,0.2875,0.2892,0.2874,0.2619,0.2579,0.2724,0.2712,0.2801,0.2798,0.2795,0.2793,0.2792,0,0.2077,0.2088,0.2138,0.2162,0.2192,0.2251,0.2288,0.2372,0.2425,0.2566,0.2602,0.2718,0.2754,0.2825,0.2787,0.2787,0.2866,0.2571,0.2467,0.2735,0.272,0.2711,0.2703,0.2248,0.2242,0.2237,0.2233,0,0.2046,0.2066,0.2092,0.2131,0.217,0.222,0.229,0.2326,0.2435,0.2475,0.2552,0.2591,0.2654,0.254,0.2547,0.2513,0.2546,0.2468,0.285,0.2294,0.2217,0.2201,0.221,0.219,0.2194,0.2197,0.22,0.2201,0.2023,0.2035,0.2063,0.2094,0.2141,0.2192,0.2186,0.2256,0.2287,0.2314,0.2412,0.2364,0.2372,0.2244,0.2171,0.2122,0.2294,0.2182,0.2197,0.2217,0.2123,0.2045,0.1968,0.1971,0.1973,0.1976,0.1978,0,0.199,0.2006,0.2027,0.2047,0.205,0.2121,0.2169,0.2121,0.2092,0.2134,0.2115,0.1905,0.1819,0.185,0.1693,0.1669,0.165,0.1607,0.1565,0.161,0.1649,0.1526,0.1213,0.1211,0.1208,0.1206,0,0,0.1976,0.1964,0.1959,0.1924,0.1965,0.1942,0.1952,0.1877,0.1852,0.1746,0.1675,0.1738,0.1794,0.1482,0.1427,0.1299,0.1447,0.1244,0.186,0.1856,0.1893,0.1984,0.1845,0,0,0,0,0]},{"header":{"parameterUnit":"m.s-1","parameterCategory":2,"la1":30.2991,"la2":30.254,"lo1":-89.0895,"lo2":-89.0444,"dy":0.0017,"dx":0.0017,"nx":28,"ny":28,"refTime":"2024-05-21T21:00:00:Z","depth":"2","parameterNumber":3,"parameterNumberName":"V-component_of_CURRENTS"},"data":[0,0,0,0,0,0,0,0,0,0,0,0,0,0,0,0,0,0,0,0,0,0,0,0,0,0,0,0,0,0,0,0,0,0,0,0,0,0,0,0,0,0,0,0,0,0,0,0,0,0,0,0,0,0,0,0,0,0,0.0094,0.0094,0,0.0117,0.0117,0.0117,0.0118,0.0118,0.0118,0.0118,0.01,0.01,0.01,0,0,0,0,0,0,0,0,0,0,0,0,0,0.0053,0.0054,0.0094,0.0094,0.0095,0.0117,0.0117,0.0117,0.0118,0.0118,0.0118,0.0118,0.01,0.01,0.01,0,0,0,0,0,0,0,0,0,0,0,0,0,0.0072,0.0054,0.0094,0.0098,0.0099,0.0117,0.0117,0.0117,0.0118,0.0118,0.0118,0.0118,0.01,0.01,0.01,0.0104,0,0,0.0098,0.0098,0,0,0,0,0,0,0,0,0.0071,0.0074,0.0097,0.0098,0.0099,0.0115,0.0096,0.0111,0.0119,0.0111,0.0118,0.0117,0.0102,0.0101,0.0106,0.0103,0.0102,0.0098,0.0098,0.0098,0.0098,0,0,0,0,0,0,0,0.007,0.0073,0.0102,0.0098,0.0099,0.01,0.0102,0.0099,0.0107,0.0111,0.0112,0.0115,0.0102,0.0107,0.0106,0.0102,0.0098,0.0098,0.0098,0.0098,0.0111,0.0112,0,0,0,0,0,0,0.0069,0.0072,0.0102,0.0103,0.0085,0.0101,0.0103,0.011,0.0108,0.0107,0.0115,0.0115,0.0107,0.0106,0.0105,0.0122,0.0098,0.0098,0.0097,0.0111,0.0111,0.0112,0,0,0,0,0,0,0.0068,0.0071,0.0101,0.0088,0.0092,0.0102,0.0109,0.011,0.0117,0.0111,0.011,0.012,0.0107,0.0106,0.0114,0.0121,0.0097,0.0097,0.011,0.0111,0.0112,0.0147,0,0,0,0,0,0,0.0067,0.0071,0.0075,0.0088,0.0093,0.0114,0.0109,0.0111,0.0119,0.0119,0.0115,0.0113,0.0107,0.0115,0.0114,0.012,0.0097,0.0109,0.011,0.0111,0.0145,0.0149,0.0153,0,0,0,0,0,0.0065,0.0076,0.0075,0.0079,0.0098,0.0115,0.0117,0.0123,0.012,0.0126,0.0129,0.0113,0.0121,0.0115,0.0114,0.012,0.0109,0.011,0.0111,0.0144,0.0149,0.0153,0,0,0,0,0,0,0.006,0.0077,0.0077,0.0091,0.0102,0.0115,0.0122,0.0125,0.0133,0.0132,0.0125,0.0124,0.0132,0.0123,0.0117,0.0127,0.011,0.0111,0.0136,0.014,0.0144,0.0156,0.0096,0,0,0,0,0,0.0061,0.0074,0.0086,0.0098,0.0103,0.0112,0.0119,0.0124,0.0133,0.0136,0.0136,0.0134,0.0137,0.0136,0.0136,0.0143,0.0131,0.0145,0.0148,0.0152,0.0161,0.0149,0.0153,0.0116,0.0116,0.0116,0,0,0.0062,0.0073,0.008,0.0098,0.0105,0.0126,0.0116,0.0129,0.0149,0.0132,0.0155,0.0147,0.0142,0.0153,0.0155,0.0146,0.0155,0.0153,0.0156,0.0164,0.0151,0.0154,0.0158,0.0117,0.0117,0.0117,0,0,0.008,0.008,0.01,0.0111,0.0126,0.0134,0.0139,0.0154,0.016,0.018,0.0173,0.0175,0.0179,0.0179,0.0178,0.0202,0.0175,0.0195,0.0223,0.0212,0.0215,0.0217,0.0203,0.0204,0.0196,0.0197,0.0197,0,0.0082,0.0109,0.0107,0.0131,0.0146,0.014,0.0168,0.0175,0.0193,0.0204,0.0191,0.0207,0.0194,0.0213,0.0218,0.021,0.0198,0.0206,0.0217,0.0219,0.0221,0.0206,0.0206,0.0198,0.0198,0.0198,0.0198,0,0.0119,0.0138,0.015,0.0179,0.0193,0.0213,0.0224,0.0236,0.0239,0.0248,0.0266,0.0254,0.0265,0.0254,0.0242,0.0252,0.0237,0.0222,0.0205,0.0226,0.0209,0.0209,0.0201,0.02,0.02,0.0199,0,0,0.0137,0.017,0.0176,0.0201,0.0221,0.0243,0.0265,0.0292,0.0319,0.0316,0.0352,0.0338,0.0329,0.0328,0.031,0.0293,0.0285,0.0264,0.0262,0.025,0.0259,0.0222,0.0218,0.027,0.027,0.027,0.024,0,0.017,0.0222,0.023,0.0283,0.0311,0.0313,0.0343,0.0363,0.037,0.04,0.0381,0.0407,0.0359,0.037,0.0344,0.031,0.0287,0.0295,0.024,0.0239,0.0204,0.0218,0.0244,0.0217,0.024,0.024,0.024,0,0.0211,0.0242,0.0295,0.0345,0.0359,0.039,0.0436,0.0465,0.0487,0.0496,0.0502,0.049,0.0482,0.0435,0.0376,0.0383,0.0324,0.0283,0.0281,0.0237,0.0203,0.02,0.0216,0.0239,0.0239,0.024,0.024,0,0.0238,0.0292,0.0338,0.0354,0.0404,0.0434,0.0467,0.0497,0.0535,0.0567,0.0599,0.0572,0.0585,0.0504,0.0412,0.0398,0.0338,0.031,0.022,0.0217,0.0224,0.022,0.0261,0.0261,0.0261,0.0261,0.0261,0,0.0275,0.0314,0.0357,0.0385,0.0452,0.0478,0.0552,0.0573,0.0623,0.0689,0.0659,0.07,0.0603,0.0554,0.0446,0.0336,0.0363,0.0231,0.0209,0.0236,0.0234,0.0241,0.0239,0.026,0.026,0.0261,0.0261,0,0.0299,0.0323,0.0382,0.0442,0.0467,0.052,0.0611,0.0664,0.0707,0.0791,0.0812,0.0807,0.0753,0.0632,0.0515,0.0398,0.0284,0.0234,0.0269,0.0251,0.0161,0.0161,0.0138,0.0136,0.0135,0.0134,0.0133,0,0.0316,0.0346,0.042,0.0465,0.0497,0.058,0.0639,0.07,0.0768,0.086,0.0909,0.089,0.0883,0.069,0.05,0.0311,0.0281,0.0191,0.0161,0.0168,0.015,0.0152,0.0154,0.0186,0.0185,0.0185,0.0185,0,0.0346,0.0367,0.0416,0.05,0.0569,0.066,0.0757,0.0822,0.0913,0.0988,0.1073,0.1072,0.0914,0.074,0.0477,0.0344,0.022,0.0177,0.0193,0.0205,0.0209,0.0192,0.0193,0.0182,0.0182,0.0183,0.0183,0.0183,0.0366,0.0403,0.046,0.0548,0.0623,0.0732,0.081,0.0927,0.1043,0.1159,0.1159,0.1158,0.0964,0.0631,0.0417,0.0197,0.0207,0.0112,0.0116,0.0119,0.0122,0.0122,0.008,0.008,0.008,0.0079,0.0079,0,0.0388,0.0435,0.0508,0.0602,0.0678,0.0727,0.0877,0.0963,0.1106,0.1204,0.126,0.1056,0.087,0.0649,0.0333,0.0126,0.012,0.0051,0.01,0.0104,0.0108,0.0112,0.0066,0.0066,0.0065,0.0064,0,0,0.0405,0.0462,0.0502,0.0623,0.0695,0.0805,0.0892,0.1032,0.1131,0.1218,0.1222,0.1183,0.0931,0.0682,0.0427,0.0257,0.0219,0.0211,0.0245,0.0339,0.0344,0.0169,0.0183,0,0,0,0,0]}],[{"header":{"parameterUnit":"m.s-1","parameterCategory":2,"la1":30.2991,"la2":30.254,"lo1":-89.0895,"lo2":-89.0444,"dy":0.0017,"dx":0.0017,"nx":28,"ny":28,"refTime":"2024-05-21T21:00:00:Z","depth":"4","parameterNumber":2,"parameterNumberName":"U-component_of_CURRENTS"},"data":[0,0,0,0,0,0,0,0,0,0,0,0,0,0,0,0,0,0,0,0,0,0,0,0,0,0,0,0,0,0,0,0,0,0,0,0,0,0,0,0,0,0,0,0,0,0,0,0,0,0,0,0,0,0,0,0,0,0,0.1234,0.1235,0,0.1282,0.1282,0.1283,0.1329,0.133,0.1331,0.1332,0.1373,0.1373,0.1373,0,0,0,0,0,0,0,0,0,0,0,0,0,0.1215,0.1214,0.1234,0.1235,0.1236,0.1282,0.1282,0.1283,0.1329,0.133,0.1331,0.1332,0.1373,0.1373,0.1373,0,0,0,0,0,0,0,0,0,0,0,0,0,0.1236,0.1214,0.1234,0.1266,0.1269,0.1282,0.1282,0.1283,0.1329,0.133,0.1331,0.1333,0.1372,0.1373,0.1373,0.1352,0,0,0.1375,0.1375,0,0,0,0,0,0,0,0,0.1235,0.1237,0.126,0.1264,0.1268,0.1303,0.1291,0.1306,0.1329,0.1304,0.1332,0.1333,0.1349,0.1352,0.1355,0.1354,0.1356,0.1375,0.1375,0.1376,0.1376,0,0,0,0,0,0,0,0.1234,0.1235,0.1251,0.1261,0.1266,0.1289,0.1293,0.1294,0.1317,0.1306,0.131,0.1319,0.1351,0.1354,0.1356,0.1356,0.1375,0.1375,0.1376,0.1376,0.1444,0.1446,0,0,0,0,0,0,0.1229,0.1233,0.1249,0.1252,0.1257,0.1289,0.1293,0.1288,0.1318,0.1324,0.1318,0.1321,0.1353,0.1356,0.1358,0.1425,0.1376,0.1376,0.1376,0.1443,0.1445,0.1446,0,0,0,0,0,0,0.1228,0.1229,0.1247,0.1247,0.1251,0.1288,0.1282,0.1289,0.1319,0.1327,0.1333,0.1345,0.1354,0.1357,0.1391,0.1424,0.1376,0.1377,0.1441,0.1443,0.1445,0.1501,0,0,0,0,0,0,0.1227,0.1228,0.1234,0.1246,0.1251,0.1262,0.1282,0.1289,0.1322,0.1327,0.1351,0.1355,0.1355,0.139,0.1392,0.1424,0.1377,0.1439,0.1442,0.1445,0.1498,0.1505,0.1512,0,0,0,0,0,0.1226,0.1219,0.1233,0.1237,0.1253,0.1262,0.1267,0.1296,0.1322,0.1329,0.1363,0.1356,0.141,0.1392,0.1393,0.1426,0.1438,0.1441,0.1444,0.1494,0.1504,0.1512,0,0,0,0,0,0,0.1216,0.1224,0.124,0.1238,0.1256,0.1271,0.1285,0.1308,0.1339,0.1356,0.1369,0.1374,0.1421,0.1412,0.1393,0.1455,0.1424,0.1428,0.1462,0.1471,0.1478,0.147,0.1377,0,0,0,0,0,0.1216,0.1215,0.123,0.1234,0.1242,0.127,0.1284,0.1305,0.133,0.1347,0.1368,0.1397,0.1429,0.1442,0.146,0.1484,0.1481,0.1508,0.1515,0.1521,0.1516,0.1557,0.1567,0.1457,0.1457,0.1457,0,0,0.1215,0.1221,0.1222,0.1233,0.1251,0.1266,0.1281,0.1306,0.1335,0.1344,0.1395,0.1422,0.1443,0.1483,0.1502,0.1482,0.1551,0.1526,0.1531,0.1522,0.1562,0.1572,0.1582,0.146,0.1459,0.1459,0,0,0.1212,0.1218,0.1221,0.1231,0.126,0.1276,0.1289,0.1319,0.135,0.1392,0.1423,0.1471,0.1502,0.1532,0.155,0.1602,0.1591,0.1613,0.1637,0.1678,0.1687,0.1695,0.1701,0.1709,0.1612,0.1612,0.1612,0,0.122,0.1218,0.1225,0.1233,0.125,0.1284,0.1301,0.133,0.1374,0.1406,0.1416,0.1508,0.1526,0.1591,0.1616,0.1619,0.1627,0.1603,0.1687,0.1695,0.1702,0.1706,0.1714,0.1615,0.1615,0.1614,0.1614,0,0.1212,0.1224,0.1226,0.1249,0.1267,0.1284,0.1322,0.136,0.1407,0.144,0.152,0.1557,0.1612,0.1633,0.1641,0.1711,0.1695,0.1695,0.1663,0.1716,0.1717,0.1725,0.162,0.1618,0.1617,0.1617,0,0,0.12,0.1219,0.1225,0.1242,0.1279,0.1291,0.1345,0.1398,0.1446,0.1502,0.1566,0.1637,0.1668,0.169,0.1719,0.1752,0.1815,0.1747,0.1748,0.1748,0.1886,0.1754,0.1749,0.1836,0.1838,0.1839,0.1863,0,0.1203,0.1217,0.1232,0.1264,0.1275,0.132,0.1365,0.1421,0.1479,0.1544,0.1609,0.1677,0.1688,0.1731,0.177,0.1813,0.1838,0.1806,0.1837,0.1837,0.1711,0.1755,0.1845,0.1869,0.187,0.1872,0.1873,0,0.119,0.1204,0.123,0.1273,0.1285,0.1319,0.14,0.1445,0.1538,0.1586,0.1665,0.1712,0.1794,0.1789,0.1876,0.1858,0.1874,0.1891,0.1892,0.1751,0.1719,0.1806,0.1886,0.1885,0.1884,0.1883,0.1882,0,0.1167,0.1202,0.1228,0.1238,0.1293,0.1334,0.1381,0.1467,0.1516,0.1625,0.1676,0.1765,0.1829,0.1872,0.1916,0.1907,0.1987,0.1978,0.1867,0.1857,0.1943,0.1934,0.2024,0.2024,0.2024,0.2024,0.2024,0,0.1144,0.1166,0.1224,0.1234,0.1281,0.1329,0.1397,0.146,0.1552,0.1603,0.1704,0.1756,0.1858,0.1913,0.1932,0.1917,0.2004,0.1868,0.1859,0.1964,0.1958,0.1947,0.1938,0.2025,0.2024,0.2024,0.2024,0,0.1099,0.114,0.1166,0.1235,0.1269,0.1302,0.1399,0.1432,0.1543,0.1618,0.1658,0.1776,0.1843,0.191,0.1979,0.1927,0.1932,0.1902,0.1999,0.1995,0.1767,0.176,0.1771,0.1766,0.1763,0.176,0.1757,0,0.1069,0.108,0.1156,0.1178,0.1215,0.128,0.1315,0.1422,0.1455,0.1607,0.1625,0.174,0.1802,0.1795,0.187,0.1882,0.1865,0.184,0.1806,0.1753,0.1744,0.1743,0.1742,0.1751,0.175,0.1749,0.1748,0,0.1006,0.1045,0.1066,0.1115,0.1158,0.1188,0.1254,0.1273,0.1385,0.1507,0.1558,0.1599,0.1666,0.1712,0.1736,0.1743,0.1842,0.1801,0.1808,0.1776,0.1729,0.1724,0.1727,0.1736,0.1737,0.1739,0.1739,0,0.0962,0.0956,0.0994,0.103,0.1072,0.1068,0.112,0.116,0.1216,0.1387,0.1398,0.1527,0.1643,0.1639,0.1662,0.1659,0.1632,0.1568,0.1587,0.1601,0.1535,0.1451,0.1361,0,0,0,0,0,0.0908,0.0893,0.0906,0.0924,0.0955,0.0981,0.1056,0.1108,0.1233,0.1227,0.1311,0.1368,0.1417,0.1484,0.1447,0.1574,0.1627,0.1521,0.1559,0.1665,0.168,0.1618,0,0,0,0,0,0,0.0871,0.0874,0.0868,0.0824,0.0817,0.0831,0.0869,0.0954,0.0965,0.1113,0.1153,0.127,0.1344,0.1426,0.1419,0.1436,0.1426,0.1605,0.1601,0.1656,0.167,0.1682,0.1623,0,0,0,0,0]},{"header":{"parameterUnit":"m.s-1","parameterCategory":2,"la1":30.2991,"la2":30.254,"lo1":-89.0895,"lo2":-89.0444,"dy":0.0017,"dx":0.0017,"nx":28,"ny":28,"refTime":"2024-05-21T21:00:00:Z","depth":"4","parameterNumber":3,"parameterNumberName":"V-component_of_CURRENTS"},"data":[0,0,0,0,0,0,0,0,0,0,0,0,0,0,0,0,0,0,0,0,0,0,0,0,0,0,0,0,0,0,0,0,0,0,0,0,0,0,0,0,0,0,0,0,0,0,0,0,0,0,0,0,0,0,0,0,0,0,0.0056,0.0056,0,0.008,0.0081,0.0081,0.0083,0.0083,0.0082,0.0082,0.0075,0.0075,0.0075,0,0,0,0,0,0,0,0,0,0,0,0,0,0.0016,0.0017,0.0056,0.0056,0.0057,0.008,0.0081,0.0081,0.0083,0.0083,0.0082,0.0082,0.0075,0.0075,0.0075,0,0,0,0,0,0,0,0,0,0,0,0,0,0.0037,0.0017,0.0056,0.006,0.0061,0.008,0.0081,0.0081,0.0083,0.0083,0.0082,0.0082,0.0074,0.0075,0.0075,0.0084,0,0,0.0075,0.0075,0,0,0,0,0,0,0,0,0.0035,0.0038,0.0059,0.006,0.0061,0.0078,0.0064,0.008,0.0083,0.0075,0.0082,0.0082,0.0073,0.0073,0.008,0.0084,0.0084,0.0075,0.0075,0.0075,0.0075,0,0,0,0,0,0,0,0.0034,0.0037,0.0066,0.006,0.006,0.0062,0.0065,0.0067,0.0076,0.0076,0.0076,0.0078,0.0073,0.008,0.0079,0.0083,0.0075,0.0075,0.0075,0.0075,0.0099,0.0099,0,0,0,0,0,0,0.0031,0.0036,0.0065,0.0067,0.0046,0.0063,0.0066,0.0073,0.0077,0.0077,0.0078,0.0078,0.008,0.0079,0.0079,0.0094,0.0075,0.0075,0.0075,0.0098,0.0099,0.0099,0,0,0,0,0,0,0.003,0.0033,0.0064,0.0051,0.0055,0.0064,0.0072,0.0074,0.0081,0.0079,0.0078,0.0084,0.0079,0.0079,0.009,0.0093,0.0075,0.0075,0.0097,0.0098,0.0099,0.0121,0,0,0,0,0,0,0.0029,0.0033,0.0037,0.0051,0.0056,0.008,0.0073,0.0075,0.0083,0.0083,0.0083,0.0082,0.0079,0.009,0.009,0.0093,0.0075,0.0097,0.0098,0.0099,0.0119,0.0122,0.0124,0,0,0,0,0,0.0027,0.004,0.0038,0.0041,0.0062,0.008,0.0083,0.0088,0.0083,0.0092,0.0095,0.0082,0.0096,0.0091,0.0091,0.0094,0.0096,0.0097,0.0099,0.0118,0.0121,0.0124,0,0,0,0,0,0,0.0026,0.0041,0.0039,0.0056,0.0066,0.008,0.0089,0.009,0.01,0.0099,0.0094,0.0094,0.0104,0.0099,0.0093,0.0104,0.0092,0.0094,0.0107,0.011,0.0113,0.011,0.0076,0,0,0,0,0,0.0027,0.004,0.0051,0.0064,0.007,0.0078,0.0086,0.009,0.0099,0.0103,0.0105,0.0106,0.011,0.011,0.0114,0.0122,0.01,0.0123,0.0125,0.0128,0.0126,0.0102,0.0102,0.0103,0.0103,0.0103,0,0,0.0029,0.0039,0.0046,0.0064,0.0073,0.0089,0.0082,0.0097,0.011,0.01,0.0119,0.0117,0.0115,0.0126,0.0129,0.0121,0.0115,0.0129,0.0131,0.0128,0.0103,0.0103,0.0103,0.0104,0.0104,0.0104,0,0,0.0045,0.005,0.0066,0.0077,0.0091,0.0098,0.0102,0.0117,0.0123,0.0141,0.0135,0.0137,0.0147,0.0145,0.0144,0.0164,0.0132,0.0162,0.0171,0.0148,0.0148,0.0147,0.0114,0.011,0.0161,0.0161,0.0161,0,0.0046,0.0068,0.0074,0.0092,0.0102,0.0103,0.0122,0.013,0.0147,0.0151,0.0149,0.0158,0.0156,0.016,0.0168,0.0168,0.0146,0.0159,0.0151,0.0149,0.0148,0.0114,0.011,0.0163,0.0162,0.0162,0.0162,0,0.0074,0.009,0.0101,0.0123,0.0135,0.0152,0.0162,0.0173,0.0177,0.018,0.0188,0.0187,0.0189,0.0187,0.0185,0.0177,0.016,0.0157,0.014,0.0149,0.0113,0.0108,0.0164,0.0164,0.0164,0.0163,0,0,0.0086,0.0115,0.012,0.0133,0.0153,0.0168,0.0186,0.0202,0.021,0.0215,0.0225,0.0226,0.0216,0.0214,0.0205,0.0185,0.0156,0.0168,0.0166,0.013,0.0093,0.0094,0.0088,0.0149,0.0149,0.0148,0.0069,0,0.0107,0.0142,0.0153,0.0186,0.0204,0.021,0.0229,0.0239,0.0241,0.025,0.0237,0.0244,0.0228,0.0229,0.0206,0.0176,0.0144,0.0177,0.0094,0.0091,0.0087,0.0083,0.0146,0.0065,0.0064,0.0063,0.0062,0,0.0132,0.0153,0.0187,0.0217,0.0226,0.0247,0.0269,0.0286,0.0288,0.029,0.0282,0.0269,0.0251,0.0236,0.017,0.019,0.0141,0.0108,0.0104,0.0094,0.0083,0.0056,0.0052,0.0053,0.0054,0.0055,0.0055,0,0.014,0.0178,0.0205,0.0216,0.025,0.0267,0.0287,0.0297,0.0316,0.0313,0.0322,0.0288,0.0283,0.0219,0.0155,0.0159,0.0073,0.007,0.0017,0.0016,0.0028,0.003,0.0008,0.0009,0.0009,0.0009,0.0009,0,0.0158,0.0181,0.0212,0.023,0.0268,0.0284,0.0321,0.0331,0.0349,0.0376,0.0345,0.0352,0.0278,0.0226,0.0155,0.0072,0.0069,0.0014,-0.0003,0.0039,0.0043,0.0023,0.0026,0.0006,0.0007,0.0007,0.0008,0,0.016,0.0181,0.0216,0.0256,0.0275,0.0302,0.0357,0.0379,0.0393,0.0426,0.043,0.0398,0.0336,0.0247,0.0143,0.0082,-0.0004,-0.0038,0.0004,-0.0008,-0.005,-0.0045,-0.0106,-0.0106,-0.0107,-0.0107,-0.0108,0,0.0164,0.0181,0.0233,0.0262,0.0285,0.0331,0.0367,0.04,0.0431,0.0458,0.0476,0.0427,0.0395,0.025,0.0148,0.0,-0.0019,-0.008,-0.006,-0.0052,-0.0062,-0.0056,-0.005,-0.0108,-0.0108,-0.0109,-0.0109,0,0.017,0.0187,0.0217,0.0276,0.0322,0.0374,0.043,0.0458,0.0501,0.051,0.0522,0.0454,0.0381,0.0264,0.0145,0.004,-0.0045,-0.0085,-0.0085,-0.0067,-0.0056,-0.0064,-0.0058,-0.011,-0.011,-0.011,-0.011,0,0.0174,0.0193,0.0237,0.0292,0.0349,0.0409,0.0437,0.0486,0.0521,0.0555,0.0554,0.0482,0.0438,0.0283,0.0177,0.0072,0.0047,0.0004,-0.0001,-0.0,0.0058,0.0089,0.0061,0,0,0,0,0,0.018,0.021,0.0254,0.032,0.0375,0.0414,0.0479,0.0503,0.0545,0.0562,0.0566,0.0503,0.0364,0.03,0.0198,0.0151,0.0012,0.0024,-0.0043,-0.012,-0.0118,-0.0068,0,0,0,0,0,0,0.0188,0.0228,0.0253,0.0336,0.0382,0.045,0.0493,0.0519,0.0534,0.0558,0.0489,0.0466,0.0328,0.0426,0.0194,0.0162,0.0101,-0.0038,-0.004,-0.0121,-0.0119,-0.0118,-0.0065,0,0,0,0,0]}]]